Location: Peebles
(55.6412°N, 3.1714°W)
Time: 14:27:49
(UTC+01:00)

USA 305 - Pass Details

Date: 26 September 2021
Orbit: 547 x 588 km, 54.0° (Epoch: 03 October)

Event Time Altitude Azimuth Distance (km) Brightness Sun altitude
Rises 19:46:28 0° 274° (W) 2,737 9.0 -7.3°
Reaches altitude 10° 19:48:42 10° 271° (W) 1,847 7.2 -7.6°
Maximum altitude 19:52:52 66° 190° (S) 618 3.1 -8.2°
Enters shadow 19:56:52 11° 108° (ESE) 1,787 4.8 -8.7°
